�������l�o���
Date,Time,MP-1(��Sv/h),MP-2(��Sv/h),MP-3(��Sv/h),MP-4(��Sv/h),MP-5(��Sv/h),MP-6(��Sv/h),MP-7(��Sv/h),MP-8(��Sv/h),����,����(m/s),���J
2021/01/08,00:00,0.655,0.932,0.602,1.177,0.826,0.377,0.666,0.631,���k��,7.2,�L
2021/01/08,00:10,0.655,0.933,0.598,1.178,0.828,0.376,0.667,0.631,��,5.4,��
2021/01/08,00:20,0.654,0.931,0.599,1.178,0.826,0.377,0.668,0.630,��,6.4,��
2021/01/08,00:30,0.655,0.933,0.599,1.180,0.824,0.376,0.668,0.631,��,6.6,��
2021/01/08,00:40,0.654,0.929,0.597,1.178,0.825,0.376,0.668,0.631,��,4.8,��
2021/01/08,00:50,0.654,0.930,0.598,1.179,0.826,0.377,0.665,0.631,��,4.9,�L
2021/01/08,01:00,0.654,0.930,0.598,1.180,0.825,0.376,0.667,0.631,���쐼,4.5,�L
2021/01/08,01:10,0.654,0.931,0.597,1.178,0.826,0.376,0.665,0.632,��,4.0,�L
2021/01/08,01:20,0.652,0.932,0.598,1.178,0.827,0.376,0.667,0.629,���k��,4.0,�L
2021/01/08,01:30,0.655,0.931,0.598,1.179,0.827,0.377,0.667,0.631,���k��,4.0,�L
2021/01/08,01:40,0.653,0.931,0.599,1.177,0.826,0.376,0.667,0.629,�k��,3.3,��
2021/01/08,01:50,0.653,0.930,0.598,1.179,0.826,0.378,0.667,0.632,�k��,4.4,��
2021/01/08,02:00,0.653,0.930,0.597,1.179,0.824,0.376,0.667,0.632,�k��,4.6,��
2021/01/08,02:10,0.653,0.932,0.596,1.179,0.824,0.376,0.667,0.630,�k��,5.2,��
2021/01/08,02:20,0.653,0.930,0.598,1.177,0.825,0.376,0.667,0.631,�k�k��,5.8,�L
2021/01/08,02:30,0.656,0.931,0.599,1.176,0.824,0.375,0.667,0.632,�k�k��,6.7,�L
2021/01/08,02:40,0.656,0.930,0.599,1.180,0.827,0.375,0.666,0.631,�k�k��,6.0,�L
2021/01/08,02:50,0.658,0.932,0.599,1.177,0.822,0.375,0.667,0.630,�k��,6.3,�L
2021/01/08,03:00,0.655,0.930,0.599,1.177,0.825,0.376,0.668,0.630,�k��,5.4,��
2021/01/08,03:10,0.657,0.931,0.599,1.176,0.822,0.376,0.666,0.631,�k��,6.5,��
2021/01/08,03:20,0.655,0.928,0.600,1.176,0.823,0.375,0.667,0.630,�k�k��,6.0,�L
2021/01/08,03:30,0.654,0.929,0.596,1.177,0.824,0.376,0.666,0.630,�k�k��,4.6,��
2021/01/08,03:40,0.654,0.926,0.598,1.177,0.825,0.375,0.666,0.630,�k�k��,4.3,��
2021/01/08,03:50,0.653,0.927,0.598,1.176,0.825,0.374,0.666,0.630,�k�k��,5.3,��
2021/01/08,04:00,0.651,0.926,0.597,1.175,0.822,0.375,0.667,0.629,�k�k��,6.4,��
2021/01/08,04:10,0.652,0.924,0.597,1.175,0.821,0.375,0.667,0.630,�k�k��,5.5,��
2021/01/08,04:20,0.652,0.926,0.596,1.173,0.821,0.375,0.665,0.630,�k�k��,5.5,��
2021/01/08,04:30,0.652,0.926,0.595,1.174,0.822,0.373,0.668,0.631,�k�k��,5.1,��
2021/01/08,04:40,0.651,0.923,0.596,1.174,0.821,0.374,0.664,0.630,�k��,4.1,��
2021/01/08,04:50,0.650,0.924,0.595,1.172,0.822,0.374,0.665,0.630,�k��,4.4,��
2021/01/08,05:00,0.650,0.926,0.595,1.173,0.820,0.373,0.665,0.631,�k��,4.3,��
2021/01/08,05:10,0.648,0.925,0.595,1.175,0.821,0.375,0.665,0.629,�k��,4.0,��
2021/01/08,05:20,0.647,0.924,0.594,1.175,0.822,0.374,0.667,0.630,�k�k��,5.0,��
2021/01/08,05:30,0.650,0.925,0.595,1.173,0.821,0.373,0.667,0.629,�k�k��,5.7,��
2021/01/08,05:40,0.648,0.925,0.595,1.174,0.822,0.374,0.665,0.630,�k��,6.9,�L
2021/01/08,05:50,0.651,0.925,0.595,1.174,0.821,0.375,0.666,0.630,�k��,6.8,�L
2021/01/08,06:00,0.651,0.924,0.593,1.175,0.821,0.374,0.666,0.627,�k��,6.6,��
2021/01/08,06:10,0.650,0.922,0.594,1.176,0.821,0.373,0.666,0.631,�k��,5.4,��
2021/01/08,06:20,0.649,0.925,0.594,1.174,0.820,0.374,0.667,0.630,�k��,6.5,��
2021/01/08,06:30,0.649,0.921,0.594,1.172,0.819,0.373,0.667,0.630,�k��,6.9,��
2021/01/08,06:40,0.649,0.922,0.593,1.173,0.820,0.374,0.666,0.634,�k��,7.3,��
2021/01/08,06:50,0.649,0.922,0.594,1.173,0.819,0.375,0.666,0.631,�k��,6.2,��
2021/01/08,07:00,0.648,0.921,0.592,1.173,0.820,0.375,0.665,0.628,�k��,6.3,��
2021/01/08,07:10,0.648,0.923,0.592,1.173,0.818,0.373,0.667,0.630,�k��,4.8,��
2021/01/08,07:20,0.649,0.920,0.591,1.175,0.819,0.373,0.667,0.629,�k��,3.5,��
2021/01/08,07:30,0.648,0.921,0.594,1.171,0.818,0.373,0.666,0.629,�k��,4.4,��
2021/01/08,07:40,0.649,0.920,0.593,1.171,0.819,0.374,0.664,0.629,�k��,4.5,��
2021/01/08,07:50,0.650,0.922,0.594,1.176,0.819,0.373,0.665,0.630,�k��,4.8,��
2021/01/08,08:00,0.651,0.920,0.594,1.174,0.821,0.375,0.666,0.628,���k��,5.9,��
2021/01/08,08:10,0.649,0.922,0.596,1.173,0.820,0.373,0.666,0.630,�k��,4.7,��
2021/01/08,08:20,0.649,0.922,0.595,1.173,0.819,0.374,0.665,0.631,�k��,4.0,��
2021/01/08,08:30,0.649,0.921,0.593,1.176,0.822,0.375,0.666,0.631,���k��,3.9,��
2021/01/08,08:40,0.648,0.923,0.594,1.174,0.819,0.374,0.666,0.629,���k��,3.1,��
2021/01/08,08:50,0.650,0.922,0.593,1.176,0.820,0.374,0.667,0.629,���k��,3.6,��
2021/01/08,09:00,0.650,0.921,0.596,1.172,0.821,0.374,0.667,0.630,���k��,3.2,��
2021/01/08,09:10,0.650,0.923,0.595,1.176,0.821,0.373,0.666,0.631,���k��,5.2,��
2021/01/08,09:20,0.650,0.923,0.594,1.175,0.820,0.374,0.669,0.631,��,3.7,��
2021/01/08,09:30,0.651,0.923,0.595,1.173,0.819,0.374,0.667,0.631,���k��,4.0,��
2021/01/08,09:40,0.652,0.925,0.594,1.173,0.821,0.376,0.668,0.630,��,4.2,��
2021/01/08,09:50,0.651,0.919,0.594,1.175,0.820,0.374,0.668,0.629,���k��,4.2,��
2021/01/08,10:00,0.653,0.924,0.596,1.173,0.819,0.374,0.667,0.632,���k��,3.3,��
2021/01/08,10:10,0.652,0.923,0.596,1.175,0.821,0.376,0.668,0.632,��,1.8,��
2021/01/08,10:20,0.654,0.924,0.596,1.176,0.821,0.376,0.665,0.631,��,2.8,��
2021/01/08,10:30,0.652,0.922,0.594,1.175,0.822,0.375,0.664,0.630,�k��,3.3,��
2021/01/08,10:40,0.652,0.923,0.595,1.175,0.823,0.375,0.666,0.631,�k��,5.4,��
2021/01/08,10:50,0.652,0.928,0.596,1.176,0.822,0.376,0.665,0.632,�k��,5.1,��
2021/01/08,11:00,0.653,0.927,0.597,1.177,0.823,0.376,0.668,0.632,�k��,5.6,��
2021/01/08,11:10,0.654,0.918,0.598,1.175,0.825,0.374,0.667,0.633,�k��,4.8,��
2021/01/08,11:20,0.655,0.917,0.597,1.177,0.824,0.375,0.667,0.631,�k��,6.8,��
2021/01/08,11:30,0.654,0.919,0.598,1.176,0.827,0.375,0.668,0.631,���k��,5.9,��
2021/01/08,11:40,0.654,0.919,0.597,1.178,0.824,0.374,0.668,0.632,���k��,6.6,��
2021/01/08,11:50,0.655,0.922,0.596,1.178,0.827,0.376,0.668,0.633,���k��,6.4,��
2021/01/08,12:00,0.657,0.922,0.597,1.179,0.828,0.374,0.669,0.632,�k��,4.9,��
2021/01/08,12:10,0.654,0.924,0.599,1.178,0.827,0.377,0.669,0.632,�k��,5.2,��
2021/01/08,12:20,0.657,0.934,0.598,1.178,0.829,0.376,0.668,0.632,�k�k��,6.7,��
2021/01/08,12:30,0.656,0.936,0.599,1.178,0.827,0.375,0.669,0.631,�k��,5.5,��
2021/01/08,12:40,0.657,0.936,0.598,1.181,0.828,0.376,0.670,0.633,�k�k��,4.5,��
2021/01/08,12:50,0.657,0.937,0.599,1.179,0.829,0.376,0.670,0.633,�k��,6.2,��
2021/01/08,13:00,0.658,0.935,0.598,1.181,0.830,0.375,0.670,0.632,�k�k��,5.8,��
2021/01/08,13:10,0.657,0.935,0.599,1.178,0.831,0.375,0.668,0.633,�k��,6.5,��
2021/01/08,13:20,0.657,0.937,0.599,1.178,0.831,0.376,0.669,0.633,�k��,6.8,��
2021/01/08,13:30,0.658,0.936,0.600,1.179,0.830,0.376,0.670,0.631,�k��,5.9,��
2021/01/08,13:40,0.657,0.934,0.600,1.178,0.832,0.376,0.669,0.632,�k��,6.0,��
2021/01/08,13:50,0.657,0.936,0.600,1.184,0.831,0.375,0.669,0.631,�k��,5.4,��
2021/01/08,14:00,0.658,0.935,0.600,1.180,0.830,0.373,0.670,0.632,�k��,6.2,��
2021/01/08,14:10,0.659,0.940,0.601,1.182,0.832,0.374,0.670,0.634,�k��,7.0,��
2021/01/08,14:20,0.659,0.937,0.598,1.179,0.832,0.374,0.671,0.630,�k��,6.0,��
2021/01/08,14:30,0.658,0.939,0.599,1.180,0.831,0.375,0.669,0.631,���k��,5.7,��
2021/01/08,14:40,0.659,0.938,0.599,1.180,0.830,0.374,0.670,0.633,�k��,5.8,��
2021/01/08,14:50,0.659,0.938,0.599,1.180,0.832,0.375,0.670,0.632,�k��,5.2,��
2021/01/08,15:00,0.660,0.939,0.599,1.180,0.832,0.376,0.670,0.632,���k��,6.0,��
2021/01/08,15:10,0.659,0.939,0.600,1.179,0.832,0.375,0.671,0.632,�k��,5.9,��
2021/01/08,15:20,0.656,0.938,0.602,1.179,0.833,0.376,0.668,0.632,�k��,6.1,��
2021/01/08,15:30,0.659,0.940,0.600,1.181,0.832,0.375,0.669,0.634,�k��,5.0,��
2021/01/08,15:40,0.659,0.940,0.598,1.179,0.834,0.376,0.669,0.632,�k��,5.4,��
2021/01/08,15:50,0.660,0.942,0.600,1.181,0.833,0.375,0.669,0.632,�k��,6.4,��
2021/01/08,16:00,0.659,0.941,0.599,1.181,0.834,0.374,0.670,0.632,�k��,5.4,��
2021/01/08,16:10,0.658,0.942,0.599,1.182,0.831,0.376,0.668,0.630,�k��,4.8,��
2021/01/08,16:20,0.658,0.938,0.599,1.183,0.833,0.376,0.670,0.631,�k��,6.0,��
2021/01/08,16:30,0.657,0.941,0.598,1.182,0.832,0.374,0.669,0.633,�k��,6.8,��
2021/01/08,16:40,0.658,0.941,0.599,1.182,0.833,0.376,0.668,0.632,�k��,6.3,��
2021/01/08,16:50,0.657,0.944,0.600,1.181,0.833,0.372,0.668,0.632,�k��,5.6,��
2021/01/08,17:00,0.658,0.941,0.598,1.181,0.832,0.375,0.669,0.633,�k��,4.6,��
2021/01/08,17:10,0.658,0.943,0.600,1.179,0.831,0.376,0.669,0.633,�k��,6.3,��
2021/01/08,17:20,0.658,0.940,0.601,1.179,0.830,0.374,0.669,0.633,�k��,6.0,��
2021/01/08,17:30,0.657,0.940,0.601,1.182,0.832,0.375,0.668,0.634,�k�k��,5.8,��
2021/01/08,17:40,0.656,0.942,0.601,1.182,0.831,0.374,0.669,0.634,�k�k��,5.0,��
2021/01/08,17:50,0.658,0.942,0.601,1.181,0.831,0.376,0.669,0.631,�k�k��,4.6,��
2021/01/08,18:00,0.658,0.939,0.600,1.180,0.831,0.375,0.667,0.633,�k��,3.9,��
2021/01/08,18:10,0.656,0.940,0.601,1.179,0.831,0.377,0.669,0.632,�k��,3.8,��
2021/01/08,18:20,0.659,0.943,0.601,1.180,0.831,0.375,0.670,0.633,���k��,3.5,��
2021/01/08,18:30,0.659,0.942,0.602,1.181,0.832,0.375,0.670,0.634,���k��,3.2,��
2021/01/08,18:40,0.659,0.943,0.600,1.180,0.832,0.377,0.668,0.630,��,2.9,��
2021/01/08,18:50,0.658,0.941,0.602,1.182,0.832,0.375,0.669,0.632,���k��,2.5,��
2021/01/08,19:00,0.658,0.942,0.600,1.182,0.832,0.375,0.668,0.634,�k��,2.5,��
2021/01/08,19:10,0.660,0.941,0.602,1.181,0.834,0.376,0.668,0.632,�k��,2.8,��
2021/01/08,19:20,0.659,0.941,0.601,1.182,0.831,0.375,0.667,0.633,�k��,3.1,��
2021/01/08,19:30,0.660,0.942,0.602,1.184,0.832,0.377,0.668,0.633,�k��,2.8,��
2021/01/08,19:40,0.658,0.942,0.601,1.181,0.833,0.375,0.669,0.633,���k��,3.1,��
2021/01/08,19:50,0.660,0.942,0.602,1.180,0.832,0.375,0.669,0.634,���k��,3.3,��
2021/01/08,20:00,0.658,0.942,0.600,1.181,0.835,0.376,0.669,0.633,���k��,3.6,��
2021/01/08,20:10,0.659,0.941,0.602,1.181,0.832,0.376,0.668,0.633,�k��,2.6,��
2021/01/08,20:20,0.658,0.941,0.600,1.180,0.832,0.375,0.668,0.633,�k��,4.0,��
2021/01/08,20:30,0.660,0.942,0.601,1.180,0.831,0.377,0.668,0.631,�k��,3.9,��
2021/01/08,20:40,0.659,0.941,0.602,1.182,0.833,0.374,0.668,0.632,�k�k��,3.0,��
2021/01/08,20:50,0.658,0.940,0.600,1.182,0.833,0.375,0.669,0.631,�k��,2.6,��
2021/01/08,21:00,0.659,0.941,0.601,1.182,0.832,0.376,0.670,0.631,�k��,3.3,��
2021/01/08,21:10,0.660,0.942,0.601,1.182,0.831,0.376,0.669,0.633,�k��,3.4,��
2021/01/08,21:20,0.658,0.944,0.602,1.182,0.833,0.375,0.669,0.633,�k��,3.3,��
2021/01/08,21:30,0.659,0.942,0.601,1.181,0.832,0.374,0.668,0.632,�k��,4.6,��
2021/01/08,21:40,0.660,0.942,0.602,1.180,0.831,0.375,0.668,0.632,�k��,4.4,��
2021/01/08,21:50,0.659,0.942,0.600,1.183,0.832,0.375,0.669,0.632,�k�k��,3.8,��
2021/01/08,22:00,0.659,0.941,0.600,1.184,0.832,0.376,0.668,0.631,�k�k��,3.2,��
2021/01/08,22:10,0.659,0.941,0.601,1.181,0.833,0.375,0.667,0.632,�k�k��,2.3,��
2021/01/08,22:20,0.658,0.941,0.600,1.180,0.832,0.375,0.669,0.634,�k,1.2,��
2021/01/08,22:30,0.659,0.941,0.601,1.180,0.831,0.375,0.668,0.631,�k�k��,2.6,��
2021/01/08,22:40,0.660,0.941,0.601,1.183,0.832,0.376,0.669,0.634,�k��,3.2,��
2021/01/08,22:50,0.658,0.941,0.601,1.182,0.832,0.378,0.668,0.633,�k��,3.1,��
2021/01/08,23:00,0.658,0.939,0.600,1.181,0.833,0.375,0.668,0.632,�k��,3.6,��
2021/01/08,23:10,0.659,0.940,0.602,1.182,0.831,0.375,0.669,0.631,�k��,3.0,��
2021/01/08,23:20,0.660,0.940,0.601,1.183,0.832,0.376,0.669,0.633,�k��,3.3,��
2021/01/08,23:30,0.658,0.940,0.601,1.181,0.833,0.376,0.669,0.633,�k��,3.9,��
2021/01/08,23:40,0.659,0.940,0.601,1.183,0.834,0.375,0.669,0.631,�k��,4.4,��
2021/01/08,23:50,0.657,0.942,0.601,1.182,0.830,0.375,0.668,0.633,�k��,4.8,��
